Regional & State Weather Roundups


140 
ASUS43 KLSX 110907
RWRMO 
WEATHER SUMMARY FOR MISSOURI
NATIONAL WEATHER SERVICE SPRINGFIELD MO
300 AM CST MON DEC 11 2017
NOTE: "FAIR" INDICATES FEW OR NO CLOUDS BELOW 12,000 FEET WITH NO
       SIGNIFICANT WEATHER AND/OR OBSTRUCTIONS TO VISIBILITY.
       CURRENT SKY AND/OR WEATHER CONDITIONS ARE NOT AVAILABLE FOR
       CHILLICOTHE AND FARMINGTON.
MOZ001>031-035>038-043-044-053-054-111000-
...NORTHERN AND WESTERN MISSOURI...
  
CITY           SKY/WX    TMP DP  RH WIND       PRES   REMARKS
KANSAS CTY INT CLEAR     33  21  61 S9        30.02F WCI  25          
KANSAS C DTWN  CLEAR     31  25  78 NW3       30.04F                  
LEE'S SUMMIT   CLEAR     40  22  48 SW9       30.04F                  
ST JOSEPH      CLEAR     27  23  85 S6        30.02F WCI  20          
CHILLICOTHE      N/A     26  21  81 S5        30.02F WCI  20          
KIRKSVILLE     CLEAR     32  26  78 SW6       30.01F WCI  26          
     
$$
MOZ066>068-077>081-088>096-101>105-111000-
...SOUTHWEST MISSOURI...
  
CITY           SKY/WX    TMP DP  RH WIND       PRES   REMARKS
SPRINGFIELD    CLEAR     31  22  69 S6        30.13F WCI  25          
JOPLIN         CLEAR     37  24  59 S7        30.15F                  
               
$$
MOZ032>034-039>042-045>050-055>058-069>072-111000-
...CENTRAL MISSOURI...  
  
CITY           SKY/WX    TMP DP  RH WIND       PRES   REMARKS
COLUMBIA       CLEAR     33  24  69 SW9       30.06F WCI  25          
JEFFERSON CITY CLEAR     27  23  85 SE5       30.09F WCI  22          
ROLLA          CLEAR     34  25  69 SW10      30.09F WCI  26          
SEDALIA        CLEAR     38  26  62 SW13      30.07F WCI  30          
WHITEMAN AFB   CLEAR     30  23  74 SW10      30.01F WCI  21          
WARRENSBURG    CLEAR     34  25  69 S7        30.06F WCI  28          
               
$$
MOZ051-052-059>065-111000-
...EAST CENTRAL MISSOURI...
  
CITY           SKY/WX    TMP DP  RH WIND       PRES   REMARKS
ST LOUIS INTL  CLEAR     29  24  82 CALM      30.08F                  
SPIRIT OF STL  CLEAR     25  23  92 S3        30.08F                  
ST CHARLES     CLEAR     25  23  92 CALM      30.08F                  
                   
$$
MOZ072>076-082>087-097>100-106>115-111000-
...SOUTH CENTRAL AND SOUTHEAST MISSOURI...
  
CITY           SKY/WX    TMP DP  RH WIND       PRES   REMARKS
CAPE GIRARDEAU CLEAR     26  23  88 CALM      30.14S                  
FARMINGTON     CLEAR     27  24  89 CALM      30.11F                  
POPLAR BLUFF   CLEAR     29  26  89 CALM      30.15S                  
WEST PLAINS    CLEAR     37  24  59 W5        30.14F                  
                                       
$$